Weather History for Evansville, IN

Change the Weather History Date:

Wednesday, August 8, 2012

  Actual Average Record
Temperature  
Mean Temperature 82 °F 77 °F  
Max Temperature 97 °F 88 °F 105 °F (1930)
Min Temperature 66 °F 66 °F 52 °F (1989)
Degree Days  
Heating Degree Days 0 0  
Month to date heating degree days 0 0  
Since 1 June heating degree days 9 6  
Since 1 July heating degree days 0 0  
Cooling Degree Days 17 12  
Month to date cooling degree days 137 99  
Year to date cooling degree days 1433 935  
Since 1 June cooling degree days 1098 800  
Growing Degree Days 32 (Base 50)    
Moisture  
Dew Point 63 °F    
Average Humidity 57    
Maximum Humidity 87    
Minimum Humidity 27    
Precipitation  
Precipitation 0.00 in 0.09 in 1.23 in (1898)
Month to date precipitation 2.72 0.75  
Year to date precipitation 16.59 28.69  
Snow  
Snow 0.00 in 0.00 in 0.00 in (2002)
Month to date snowfall 0.0 0.0  
Since 1 June snowfall 0.0 0.0  
Since 1 July snowfall 0.0 0.0  
Snow Depth 0.00 in    
Sea Level Pressure  
Sea Level Pressure 29.95 in    
Wind  
Wind Speed 3 mph (South)    
Max Wind Speed 9 mph    
Max Gust Speed 13 mph    
Visibility 10 miles    
Events      
T = Trace of Precipitation, MM = Missing Value Source: NWS Daily Summary

Daily Weather History Graph

Daily Weather History Graph

Search for Another Location

Airport:

Trip Planner

Search our weather history database for the weather conditions in past years. The results will help you decide how hot, cold, wet, or windy it might be!

Date:

Astronomy

Aug. 08, 2012 Rise Set
Actual Time 5:59 AM CDT 7:51 PM CDT
Civil Twilight 5:30 AM CDT 8:19 PM CDT
Nautical Twilight 4:56 AM CDT 8:54 PM CDT
Astronomical Twilight 4:18 AM CDT 9:31 PM CDT
Moon 11:13 PM CDT (8/8) 12:36 PM CDT (8/8)
Length of Visible Light 14h 48m
Length of Day
13h 51m
Waning Gibbous, 60% of the Moon is Illuminated
Aug 8
Waning Gibbous
Aug 9
Last Quarter
Aug 17
New
Aug 24
First Quarter
Aug 31
Full

Hourly Weather History & Observations

Time (CDT) Temp. Heat Index Dew Point Humidity Pressure Visibility Wind Dir Wind Speed Gust Speed Precip Events Conditions
12:54 AM 70.0 °F - 64.0 °F 81% 29.97 in 10.0 mi Calm Calm - N/A   Clear
1:54 AM 68.0 °F - 63.0 °F 84% 29.96 in 10.0 mi Calm Calm - N/A   Clear
2:54 AM 68.0 °F - 64.0 °F 87% 29.96 in 10.0 mi Calm Calm - N/A   Clear
3:54 AM 68.0 °F - 63.0 °F 84% 29.97 in 10.0 mi Calm Calm - N/A   Clear
4:54 AM 66.9 °F - 63.0 °F 87% 29.96 in 10.0 mi Calm Calm - N/A   Clear
5:54 AM 68.0 °F - 63.0 °F 84% 29.97 in 10.0 mi Calm Calm - N/A   Clear
6:54 AM 70.0 °F - 64.9 °F 84% 29.98 in 10.0 mi Calm Calm - N/A   Clear
7:54 AM 77.0 °F - 66.9 °F 71% 30.00 in 10.0 mi NE 3.5 mph - N/A   Clear
8:54 AM 82.0 °F 83.4 °F 64.0 °F 54% 30.01 in 10.0 mi Calm Calm - N/A   Clear
9:54 AM 86.0 °F 87.6 °F 64.9 °F 49% 30.01 in 10.0 mi Calm Calm - N/A   Clear
10:54 AM 90.0 °F 90.6 °F 63.0 °F 40% 30.00 in 10.0 mi Variable 3.5 mph - N/A   Clear
11:54 AM 91.9 °F 90.8 °F 57.9 °F 32% 29.99 in 10.0 mi West 5.8 mph - N/A   Clear
12:54 PM 93.9 °F 92.9 °F 57.9 °F 30% 29.98 in 10.0 mi Variable 3.5 mph - N/A   Clear
1:54 PM 96.1 °F 96.0 °F 60.1 °F 30% 29.96 in 10.0 mi West 8.1 mph - N/A   Clear
2:54 PM 95.0 °F 94.4 °F 59.0 °F 30% 29.95 in 10.0 mi WSW 5.8 mph - N/A   Clear
3:54 PM 96.1 °F 95.2 °F 57.9 °F 28% 29.92 in 10.0 mi Calm Calm - N/A   Clear
4:54 PM 95.0 °F 94.4 °F 59.0 °F 30% 29.90 in 10.0 mi South 5.8 mph - N/A   Clear
5:54 PM 93.2 °F 93.3 °F 60.8 °F 34% 29.90 in 10.0 mi Calm Calm - N/A   Clear
6:54 PM 91.0 °F 90.9 °F 61.0 °F 36% 29.89 in 10.0 mi South 3.5 mph - N/A   Clear
7:54 PM 84.0 °F 85.4 °F 64.0 °F 51% 29.90 in 10.0 mi ESE 5.8 mph - N/A   Clear
8:54 PM 82.9 °F 85.0 °F 66.0 °F 56% 29.90 in 10.0 mi SE 3.5 mph - N/A   Scattered Clouds
9:54 PM 84.0 °F 85.8 °F 64.9 °F 53% 29.90 in 10.0 mi SE 4.6 mph - N/A   Clear
10:54 PM 82.9 °F 84.6 °F 64.9 °F 54% 29.88 in 10.0 mi SE 3.5 mph - N/A   Clear
11:54 PM 82.0 °F 84.1 °F 66.0 °F 58% 29.89 in 10.0 mi SSW 5.8 mph - N/A   Clear